x

Capers Nearshore (cap 2) (41029) Weather Station

9:08am - Tue 26th May 2015 All times are EDT. -4 hours from GMT.

  • Wind
    2mph, 4mph gusts
  • Air Temp 77°f
  • Sea Pressure 1025.7mb
  • Capers Nearshore (cap 2)
  • Capers Nearshore (cap 2)

More Historic Weather Station data

Upgrade to MSW Pro to gain access to the past 30 days of data for over 8000 Wavebouys and Weather Stations around the globe.

Join Pro

Comparision Forecast

View Surf forecast
   
Tue 05/26 9:08am 2 4 mph 1025.7mb 77f
8:08am  -  4 mph 1025.3mb 76f
7:08am  -  4 mph 1024.6mb 76f
6:08am 2 4 mph 1023.9mb 75f
5:08am 7 9 mph 1023.5mb 75f
4:08am 9 13 mph 1023.4mb 75f
3:08am 9 13 mph 1023.5mb 75f
2:08am 11 13 mph 1023.9mb 75f
1:08am 11 16 mph 1024.3mb 75f
12:08am 13 18 mph 1024.8mb 75f
Mon 05/25 11:08pm 13 18 mph 1025.1mb 75f
10:08pm 13 18 mph 1025mb 75f
9:08pm 9 13 mph 1024.9mb 75f
8:08pm 11 16 mph 1024.6mb 75f
7:08pm 11 16 mph 1025mb 76f
6:08pm 11 13 mph 1024.8mb 76f
5:08pm 11 13 mph 1025.1mb 76f
4:08pm 11 13 mph 1025.6mb 76f
3:08pm 11 13 mph 1025.9mb 76f
2:08pm 11 13 mph 1026.3mb 76f
1:08pm 11 16 mph 1026.7mb 75f
12:08pm 11 16 mph 1026.9mb 75f
11:08am 11 16 mph 1026.9mb 75f
10:08am 13 18 mph 1026.9mb 75f
8:08am 13 18 mph 1026.1mb 75f
7:08am 13 18 mph 1025.9mb 74f
6:08am 13 18 mph 1025.7mb 74f
5:08am 13 18 mph 1025.6mb 74f
4:08am 13 20 mph 1025.5mb 74f
3:08am 13 20 mph 1025.4mb 74f
2:08am 16 22 mph 1025.9mb 74f
1:08am 18 20 mph 1026.3mb 74f
12:08am 18 22 mph 1026.4mb 74f
Sun 05/24 11:08pm 16 22 mph 1026.6mb 75f
10:08pm 16 22 mph 1026.8mb 75f
9:08pm 18 25 mph 1026.3mb 75f
8:08pm 18 25 mph 1026.3mb 75f
6:08pm 16 20 mph 1026.5mb 76f
5:08pm 16 20 mph 1026.5mb 75f
4:08pm 16 20 mph 1026.8mb 75f
2:08pm 16 20 mph 1028mb 75f
1:08pm 16 20 mph 1028.2mb 75f
12:08pm 16 20 mph 1028.6mb 75f
11:08am 16 20 mph 1028.8mb 75f
10:08am 16 22 mph 1028.4mb 75f
9:08am 16 20 mph 1028.5mb 75f
8:08am 16 20 mph 1028.2mb 75f
7:08am 16 22 mph 1027.8mb 74f
6:08am 16 22 mph 1027.4mb 74f
4:08am 18 22 mph 1026.8mb 74f
3:08am 18 22 mph 1026.3mb 74f
2:08am 16 22 mph 1026.9mb 74f
1:08am 18 22 mph 1027.5mb 74f
12:08am 18 25 mph 1027.9mb 74f
Sat 05/23 11:08pm 18 22 mph 1027.8mb 74f
10:08pm 18 22 mph 1027.7mb 75f
9:08pm 18 22 mph 1027.2mb 75f
8:08pm 16 22 mph 1027.6mb 75f
7:08pm 18 22 mph 1027.6mb 74f
6:08pm 18 22 mph 1027.9mb 74f
5:08pm 18 22 mph 1027.8mb 74f
4:08pm 16 22 mph 1028.2mb 74f
3:08pm 16 20 mph 1028.4mb 73f
2:08pm 16 22 mph 1028.6mb 73f
1:08pm 18 22 mph 1028.9mb 73f
12:08pm 18 22 mph 1029.2mb 73f
11:08am 18 25 mph 1028.6mb 73f
10:08am 18 25 mph 1028.6mb 73f
9:08am 18 25 mph 1028.2mb 73f
8:08am 18 22 mph 1027.6mb 73f
7:08am 18 25 mph 1026.8mb 72f
6:08am 18 22 mph 1025.9mb 72f
5:08am 18 22 mph 1025.1mb 71f
4:08am 16 20 mph 1024.8mb 71f
3:08am 16 20 mph 1024.4mb 72f
2:08am 13 18 mph 1024.5mb 72f
1:08am 11 16 mph 1024.6mb 72f
12:08am 11 16 mph 1024.8mb 72f
Fri 05/22 11:08pm 11 16 mph 1024.6mb 72f
10:08pm 11 16 mph 1023.9mb 72f
9:08pm 11 16 mph 1023.2mb 71f
8:08pm 11 16 mph 1022.8mb 71f
7:08pm 11 18 mph 1022mb 71f
6:08pm 13 18 mph 1021.8mb 71f
4:08pm 16 20 mph 1022.1mb 70f
3:08pm 16 22 mph 1021.9mb 70f